{"data":{"norad_id":65025,"intl_designator":"2025-161L","name":"STARLINK-34727","alt_names":[],"object_type":"PAYLOAD","status":"ACTIVE","operator":null,"country":"US","launch_date":"2025-07-30","launch_site_code":"AFWTR","launch_vehicle":null,"mission":null,"orbit_class":"UNKNOWN","rcs_meters":null,"size_class":null,"mass_kg":null,"dimensions":null,"purposes":["comms"],"wikipedia_slug":null,"has_3d_model":false,"image_url":null,"decayed_at":null,"tle_current":{"epoch":"2026-05-25T03:47:41.904960Z","epoch_age_seconds":61495,"freshness":"FRESH","line1":"1 65025U 25161L   26145.15812390  .00055140  00000+0  16722-2 0  9994","line2":"2 65025  53.1612 298.5776 0000849  71.3349 288.7745 15.33613224 47068","mean_motion":15.33613224,"eccentricity":8.49e-5,"inclination_deg":53.1612,"raan_deg":298.5776,"arg_perigee_deg":71.3349,"mean_anomaly_deg":288.7745,"bstar":0.0016722,"rev_number":4706,"period_min":93.895903964897,"perigee_km":464.46171800537,"apogee_km":465.6236899191,"semimajor_km":6843.1797039622,"source":"CELESTRAK","updated_at":"2026-05-25T13:38:20.669634Z"}}}